Weather History for KAUO - April, 2013

Change the Weather History Date:

Sunday, April 14, 2013

  Actual Average Record
Temperature  
Mean Temperature 58 °F -  
Max Temperature 61 °F - 87 °F (1972)
Min Temperature 54 °F - 29 °F (1959)
Degree Days  
Heating Degree Days 7    
Month to date heating degree days 58  
Since 1 July heating degree days 1966  
Cooling Degree Days 0    
Month to date cooling degree days 22  
Year to date cooling degree days 36  
Growing Degree Days 6 (Base 50)    
Moisture  
Dew Point 48 °F    
Average Humidity 74    
Maximum Humidity 88    
Minimum Humidity 42    
Precipitation  
Precipitation 1.05 in - 2.50 in (1979)
Month to date precipitation 1.70  
Year to date precipitation 18.21  
Sea Level Pressure  
Sea Level Pressure 29.96 in    
Wind  
Wind Speed 8 mph (East)    
Max Wind Speed 20 mph    
Max Gust Speed 27 mph    
Visibility 10 miles    
Events Thunderstorm    
T = Trace of Precipitation, MM = Missing Value Source: NWS Daily Summary

Daily Weather History Graph

Daily Weather History Graph

Search for Another Location

Airport or City:

Trip Planner

Search our weather history database for the weather conditions in past years. The results will help you decide how hot, cold, wet, or windy it might be!

Date:

Astronomy

Apr. 14, 2013 Rise Set
Actual Time 6:13 AM CDT 7:11 PM CDT
Civil Twilight 5:47 AM CDT 7:36 PM CDT
Nautical Twilight 5:18 AM CDT 8:06 PM CDT
Astronomical Twilight 4:47 AM CDT 8:37 PM CDT
Moon 8:59 AM CDT (4/14) 11:14 PM CDT (4/14)
Length of Visible Light 13h 48m
Length of Day
12h 57m
Waxing Crescent, 17% of the Moon is Illuminated
Apr 14
Waxing Crescent
Apr 18
First Quarter
Apr 25
Full
May 2
Last Quarter
May 9
New

Hourly Weather History & Observations

Time (CDT) Temp. Dew Point Humidity Pressure Visibility Wind Dir Wind Speed Gust Speed Precip Events Conditions
12:15 AM 57.2 °F 44.6 °F 63% 30.01 in 10.0 mi ESE 3.5 mph - N/A   Clear
12:35 AM 57.2 °F 42.8 °F 59% 30.00 in 10.0 mi SE 3.5 mph - N/A   Clear
12:55 AM 57.2 °F 41.0 °F 55% 29.99 in 10.0 mi East 5.8 mph - N/A   Clear
1:15 AM 57.2 °F 41.0 °F 55% 29.99 in 10.0 mi East 4.6 mph - N/A   Clear
1:35 AM 57.2 °F 42.8 °F 59% 29.99 in 10.0 mi ENE 4.6 mph - N/A   Clear
1:55 AM 57.2 °F 41.0 °F 55% 29.98 in 10.0 mi ENE 3.5 mph - N/A   Clear
2:15 AM 57.2 °F 41.0 °F 55% 29.98 in 10.0 mi East 5.8 mph - N/A   Clear
2:35 AM 57.2 °F 41.0 °F 55% 29.97 in 10.0 mi East 4.6 mph - N/A   Clear
2:55 AM 57.2 °F 42.8 °F 59% 29.97 in 10.0 mi East 6.9 mph - N/A   Partly Cloudy
3:15 AM 57.2 °F 42.8 °F 59% 29.95 in 10.0 mi ENE 6.9 mph - N/A   Scattered Clouds
3:35 AM 57.2 °F 41.0 °F 55% 29.94 in 10.0 mi ENE 8.1 mph - N/A   Mostly Cloudy
3:55 AM 57.2 °F 42.8 °F 59% 29.95 in 10.0 mi NE 8.1 mph - N/A   Overcast
4:15 AM 59.0 °F 41.0 °F 51% 29.95 in 10.0 mi ENE 9.2 mph - N/A   Overcast
4:35 AM 60.8 °F 39.2 °F 45% 29.96 in 10.0 mi ENE 8.1 mph - N/A   Overcast
4:55 AM 60.8 °F 39.2 °F 45% 29.95 in 10.0 mi ENE 9.2 mph - N/A   Overcast
5:15 AM 60.8 °F 39.2 °F 45% 29.96 in 10.0 mi East 6.9 mph - N/A Thunderstorm Overcast
5:35 AM 60.8 °F 39.2 °F 45% 29.95 in 10.0 mi East 10.4 mph - N/A Thunderstorm Thunderstorm
5:55 AM 60.8 °F 37.4 °F 42% 29.95 in 10.0 mi East 10.4 mph - N/A Thunderstorm Overcast
6:15 AM 60.8 °F 37.4 °F 42% 29.99 in 10.0 mi ESE 5.8 mph - N/A   Overcast
6:35 AM 60.8 °F 39.2 °F 45% 30.03 in 10.0 mi Calm Calm - 0.01 in   Overcast
7:15 AM 57.2 °F 44.6 °F 63% 30.05 in 10.0 mi South 6.9 mph - N/A   Mostly Cloudy
7:35 AM 57.2 °F 42.8 °F 59% 30.01 in 10.0 mi ESE 8.1 mph - N/A   Scattered Clouds
7:55 AM 57.2 °F 42.8 °F 59% 29.98 in 10.0 mi East 10.4 mph - N/A   Mostly Cloudy
8:15 AM 57.2 °F 41.0 °F 55% 29.97 in 10.0 mi East 10.4 mph - N/A   Overcast
8:35 AM 57.2 °F 42.8 °F 59% 29.99 in 10.0 mi ESE 5.8 mph - N/A   Overcast
8:55 AM 55.4 °F 44.6 °F 67% 29.98 in 10.0 mi East 6.9 mph - 0.02 in   Overcast
9:15 AM 55.4 °F 46.4 °F 72% 30.06 in 10.0 mi SW 9.2 mph - N/A   Overcast
9:35 AM 53.6 °F 46.4 °F 77% 30.08 in 10.0 mi West 6.9 mph - 0.05 in   Overcast
9:55 AM 53.6 °F 48.2 °F 82% 30.08 in 10.0 mi SW 4.6 mph - 0.11 in   Overcast
10:15 AM 53.6 °F 48.2 °F 82% 30.05 in 7.0 mi East 4.6 mph - 0.02 in   Overcast
10:35 AM 53.6 °F 48.2 °F 82% 30.05 in 6.0 mi Calm Calm - 0.07 in   Overcast
10:55 AM 53.6 °F 50.0 °F 88% 30.02 in 9.0 mi East 8.1 mph - 0.12 in   Overcast
11:15 AM 53.6 °F 50.0 °F 88% 30.02 in 8.0 mi ESE 5.8 mph - 0.06 in   Overcast
11:35 AM 55.4 °F 50.0 °F 82% 30.04 in 6.0 mi ESE 6.9 mph - 0.12 in   Overcast
11:55 AM 53.6 °F 50.0 °F 88% 30.04 in 5.0 mi ESE 5.8 mph - 0.24 in   Overcast
12:15 PM 53.6 °F 50.0 °F 88% 30.03 in 9.0 mi East 6.9 mph - 0.08 in   Overcast
12:35 PM 53.6 °F 50.0 °F 88% 30.04 in 7.0 mi East 5.8 mph - 0.14 in   Overcast
12:55 PM 53.6 °F 50.0 °F 88% 30.04 in 6.0 mi East 8.1 mph - 0.28 in   Overcast
1:15 PM 55.4 °F 51.8 °F 88% 30.04 in 10.0 mi North 5.8 mph - 0.06 in   Overcast
1:35 PM 55.4 °F 51.8 °F 88% 30.03 in 10.0 mi NNE 5.8 mph - 0.14 in   Overcast
1:55 PM 55.4 °F 51.8 °F 88% 30.01 in 10.0 mi East 10.4 mph - 0.21 in   Overcast
2:15 PM 55.4 °F 51.8 °F 88% 30.00 in 10.0 mi ENE 8.1 mph - 0.03 in   Mostly Cloudy
2:35 PM 55.4 °F 51.8 °F 88% 29.93 in 10.0 mi ENE 15.0 mph 18.4 mph 0.05 in   Overcast
2:55 PM 55.4 °F 50.0 °F 82% 29.90 in 10.0 mi East 19.6 mph 26.5 mph 0.05 in   Mostly Cloudy
3:15 PM 55.4 °F 50.0 °F 82% 29.89 in 10.0 mi East 19.6 mph 24.2 mph N/A   Scattered Clouds
3:35 PM 55.4 °F 48.2 °F 77% 29.86 in 10.0 mi East 18.4 mph 27.6 mph N/A   Mostly Cloudy
3:55 PM 55.4 °F 50.0 °F 82% 29.83 in 10.0 mi ESE 16.1 mph 21.9 mph N/A   Mostly Cloudy
4:15 PM 55.4 °F 50.0 °F 82% 29.82 in 10.0 mi East 13.8 mph 19.6 mph N/A   Overcast
4:35 PM 55.4 °F 51.8 °F 88% 29.85 in 10.0 mi East 4.6 mph 21.9 mph N/A   Overcast
4:55 PM 57.2 °F 51.8 °F 82% 29.84 in 10.0 mi East 11.5 mph 17.3 mph N/A   Overcast
5:15 PM 57.2 °F 51.8 °F 82% 29.84 in 10.0 mi East 10.4 mph 17.3 mph N/A   Overcast
5:35 PM 57.2 °F 51.8 °F 82% 29.84 in 10.0 mi East 10.4 mph - N/A   Overcast
5:55 PM 57.2 °F 51.8 °F 82% 29.84 in 10.0 mi East 9.2 mph - N/A   Overcast
6:15 PM 57.2 °F 53.6 °F 88% 29.85 in 10.0 mi East 5.8 mph - N/A   Overcast
6:35 PM 57.2 °F 53.6 °F 88% 29.86 in 10.0 mi NE 5.8 mph - N/A   Overcast
6:55 PM 57.2 °F 53.6 °F 88% 29.87 in 10.0 mi NE 6.9 mph - N/A   Overcast
7:15 PM 57.2 °F 53.6 °F 88% 29.88 in 10.0 mi NE 9.2 mph - N/A   Overcast
7:35 PM 57.2 °F 53.6 °F 88% 29.90 in 10.0 mi North 6.9 mph - N/A   Overcast
7:55 PM 57.2 °F 53.6 °F 88% 29.91 in 10.0 mi NNE 8.1 mph - N/A   Overcast
8:15 PM 57.2 °F 53.6 °F 88% 29.92 in 10.0 mi NNE 6.9 mph - N/A   Overcast
8:35 PM 57.2 °F 53.6 °F 88% 29.92 in 10.0 mi NE 8.1 mph - N/A   Overcast
8:55 PM 57.2 °F 53.6 °F 88% 29.92 in 10.0 mi ENE 6.9 mph - N/A   Overcast
9:15 PM 57.2 °F 53.6 °F 88% 29.93 in 10.0 mi ENE 6.9 mph - N/A   Overcast
9:35 PM 57.2 °F 53.6 °F 88% 29.92 in 10.0 mi East 5.8 mph - N/A   Overcast
9:55 PM 57.2 °F 53.6 °F 88% 29.93 in 10.0 mi East 4.6 mph - N/A   Overcast
10:15 PM 57.2 °F 53.6 °F 88% 29.94 in 10.0 mi East 5.8 mph - N/A   Overcast
10:35 PM 57.2 °F 53.6 °F 88% 29.94 in 10.0 mi East 4.6 mph - N/A   Overcast
10:55 PM 57.2 °F 53.6 °F 88% 29.94 in 10.0 mi East 5.8 mph - N/A   Overcast
11:15 PM 57.2 °F 53.6 °F 88% 29.93 in 10.0 mi East 6.9 mph - N/A   Overcast
11:35 PM 57.2 °F 53.6 °F 88% 29.92 in 10.0 mi ESE 4.6 mph - N/A   Overcast
11:55 PM 57.2 °F 53.6 °F 88% 29.92 in 10.0 mi East 4.6 mph - N/A   Overcast